When you browse on this site, cookies collect data to enhance your experience and personalize the content and advertising you see.
Visit our Privacy Policy to learn more. By continuing to use the site, you agree to this use of cookies and data.
  • In Czech Republic
  • List of Countries
  • For 7 days
  • Water Temperature
  • Weather Map
  • Weather Widgets
  • user-avatar
    Login

    Hourly Weather La Paz

    Today, 29 May, Friday

    Time Temperature Precipitation Wind Pressure Humidity
    00:00 +15°C° 0.2 mm 1 mps 609 mmHg 95%
    01:00 +15°C° 0.2 mm 1 mps 609 mmHg 94%
    02:00 +15°C° 0 mm 1 mps 609 mmHg 94%
    03:00 +15°C° 0 mm 1 mps 608 mmHg 94%
    04:00 +13°C° 0 mm 0 mps 608 mmHg 93%
    05:00 +14°C° 0 mm 0 mps 609 mmHg 92%
    06:00 +14°C° 0 mm 0 mps 609 mmHg 90%
    07:00 +15°C° 0 mm 0 mps 610 mmHg 89%
    08:00 +19°C° 0.1 mm 1 mps 611 mmHg 81%
    09:00 +21°C° 0.1 mm 1 mps 611 mmHg 73%
    10:00 +23°C° 0.1 mm 1 mps 612 mmHg 65%
    11:00 +23°C° 1 mm 1 mps 612 mmHg 72%
    12:00 +22°C° 1 mm 1 mps 611 mmHg 78%
    13:00 +22°C° 1 mm 1 mps 610 mmHg 85%
    14:00 +21°C° 1.2 mm 1 mps 609 mmHg 86%
    15:00 +21°C° 1.2 mm 1 mps 608 mmHg 87%
    16:00 +20°C° 1.2 mm 1 mps 608 mmHg 87%
    17:00 +19°C° 1 mm 1 mps 608 mmHg 90%
    18:00 +16°C° 1 mm 0 mps 608 mmHg 94%
    19:00 +15°C° 1 mm 0 mps 608 mmHg 97%
    20:00 +15°C° 2.3 mm 0 mps 609 mmHg 97%
    21:00 +15°C° 2.3 mm 0 mps 609 mmHg 97%
    22:00 +15°C° 2.3 mm 1 mps 609 mmHg 98%
    23:00 +15°C° 1.9 mm 1 mps 609 mmHg 98%

    Tomorrow, 30 May, Saturday

    Time Temperature Precipitation Wind Pressure Humidity
    00:00 +15°C° 1.9 mm 1 mps 609 mmHg 98%
    01:00 +15°C° 1.9 mm 1 mps 609 mmHg 98%
    02:00 +13°C° 0.2 mm 0 mps 609 mmHg 98%
    03:00 +13°C° 0.2 mm 0 mps 608 mmHg 98%
    04:00 +13°C° 0.2 mm 0 mps 608 mmHg 98%
    05:00 +13°C° 0 mm 0 mps 609 mmHg 97%
    06:00 +14°C° 0 mm 0 mps 609 mmHg 96%
    07:00 +14°C° 0 mm 0 mps 610 mmHg 95%
    08:00 +17°C° 0.1 mm 0 mps 611 mmHg 85%
    09:00 +19°C° 0.1 mm 0 mps 612 mmHg 75%
    10:00 +23°C° 0.1 mm 1 mps 613 mmHg 65%
    11:00 +23°C° 0.7 mm 1 mps 612 mmHg 70%
    12:00 +22°C° 0.7 mm 1 mps 611 mmHg 75%
    13:00 +22°C° 0.7 mm 1 mps 610 mmHg 79%
    14:00 +22°C° 1.5 mm 1 mps 610 mmHg 82%
    15:00 +21°C° 1.5 mm 1 mps 609 mmHg 86%
    16:00 +20°C° 1.5 mm 1 mps 608 mmHg 89%
    17:00 +19°C° 3.8 mm 1 mps 608 mmHg 92%
    18:00 +18°C° 3.8 mm 1 mps 608 mmHg 95%
    19:00 +16°C° 3.8 mm 1 mps 608 mmHg 98%
    20:00 +16°C° 3 mm 1 mps 609 mmHg 98%
    21:00 +15°C° 3 mm 1 mps 609 mmHg 98%
    22:00 +15°C° 3 mm 1 mps 609 mmHg 98%
    23:00 +15°C° 0.2 mm 1 mps 609 mmHg 98%

    Day after tomorrow, 31 May, Sunday

    Time Temperature Precipitation Wind Pressure Humidity
    00:00 +13°C° 0.2 mm 0 mps 609 mmHg 97%
    01:00 +13°C° 0.2 mm 0 mps 608 mmHg 97%
    02:00 +13°C° 0 mm 0 mps 608 mmHg 97%
    03:00 +13°C° 0 mm 0 mps 608 mmHg 96%
    04:00 +13°C° 0 mm 0 mps 608 mmHg 96%
    05:00 +13°C° 0 mm 0 mps 608 mmHg 95%
    06:00 +14°C° 0 mm 0 mps 609 mmHg 94%
    07:00 +14°C° 0 mm 0 mps 610 mmHg 93%
    08:00 +16°C° 0.3 mm 0 mps 610 mmHg 87%
    09:00 +20°C° 0.3 mm 1 mps 611 mmHg 81%
    10:00 +21°C° 0.3 mm 1 mps 612 mmHg 76%
    11:00 +21°C° 1 mm 1 mps 611 mmHg 81%
    12:00 +21°C° 1 mm 1 mps 611 mmHg 87%
    13:00 +20°C° 1 mm 1 mps 610 mmHg 93%
    14:00 +20°C° 1.4 mm 1 mps 609 mmHg 94%
    15:00 +20°C° 1.4 mm 1 mps 609 mmHg 95%
    16:00 +19°C° 1.4 mm 1 mps 608 mmHg 96%
    17:00 +16°C° 0.9 mm 0 mps 609 mmHg 97%
    18:00 +16°C° 0.9 mm 0 mps 609 mmHg 97%
    19:00 +15°C° 0.9 mm 0 mps 609 mmHg 98%
    20:00 +15°C° 0.8 mm 0 mps 609 mmHg 98%
    21:00 +14°C° 0.8 mm 0 mps 610 mmHg 98%
    22:00 +14°C° 0.8 mm 0 mps 610 mmHg 98%
    23:00 +14°C° 0.9 mm 0 mps 610 mmHg 98%

    1 June, Monday

    Time Temperature Precipitation Wind Pressure Humidity
    00:00 +14°C° 0.9 mm 0 mps 609 mmHg 98%
    01:00 +14°C° 0.9 mm 0 mps 609 mmHg 98%
    02:00 +14°C° 0.4 mm 0 mps 609 mmHg 98%
    03:00 +13°C° 0.4 mm 0 mps 609 mmHg 98%
    04:00 +13°C° 0.4 mm 0 mps 608 mmHg 98%
    05:00 +13°C° 0.1 mm 0 mps 609 mmHg 97%
    06:00 +14°C° 0.1 mm 0 mps 609 mmHg 97%
    07:00 +14°C° 0.1 mm 0 mps 610 mmHg 96%
    08:00 +16°C° 0.2 mm 0 mps 611 mmHg 89%
    09:00 +20°C° 0.2 mm 1 mps 611 mmHg 82%
    10:00 +21°C° 0.2 mm 1 mps 612 mmHg 75%
    11:00 +21°C° 0.8 mm 1 mps 611 mmHg 80%
    12:00 +21°C° 0.8 mm 1 mps 611 mmHg 85%
    13:00 +20°C° 0.8 mm 1 mps 610 mmHg 90%
    14:00 +20°C° 1.1 mm 1 mps 609 mmHg 91%
    15:00 +19°C° 1.1 mm 1 mps 609 mmHg 93%
    16:00 +19°C° 1.1 mm 1 mps 608 mmHg 94%
    17:00 +16°C° 0.6 mm 0 mps 609 mmHg 95%
    18:00 +16°C° 0.6 mm 0 mps 609 mmHg 96%
    19:00 +15°C° 0.6 mm 0 mps 609 mmHg 97%
    20:00 +15°C° 0.7 mm 0 mps 609 mmHg 97%
    21:00 +14°C° 0.7 mm 0 mps 610 mmHg 97%
    22:00 +15°C° 0.7 mm 1 mps 610 mmHg 97%
    23:00 +15°C° 0.4 mm 1 mps 610 mmHg 97%

    2 June, Tuesday

    Time Temperature Precipitation Wind Pressure Humidity
    00:00 +15°C° 0.4 mm 1 mps 609 mmHg 97%
    01:00 +15°C° 0.4 mm 1 mps 609 mmHg 97%
    02:00 +13°C° 0.1 mm 0 mps 609 mmHg 97%
    03:00 +13°C° 0.1 mm 0 mps 608 mmHg 97%
    04:00 +13°C° 0.1 mm 0 mps 608 mmHg 97%
    05:00 +14°C° 0 mm 0 mps 609 mmHg 96%
    06:00 +14°C° 0 mm 0 mps 609 mmHg 95%
    07:00 +14°C° 0 mm 0 mps 609 mmHg 94%
    08:00 +19°C° 0 mm 1 mps 610 mmHg 83%
    09:00 +21°C° 0 mm 1 mps 611 mmHg 73%
    10:00 +23°C° 0 mm 1 mps 612 mmHg 62%
    11:00 +23°C° 0.7 mm 1 mps 611 mmHg 69%
    12:00 +22°C° 0.7 mm 1 mps 610 mmHg 77%
    13:00 +22°C° 0.7 mm 1 mps 610 mmHg 84%
    14:00 +21°C° 1.3 mm 1 mps 609 mmHg 85%
    15:00 +21°C° 1.3 mm 1 mps 608 mmHg 86%
    16:00 +21°C° 1.3 mm 1 mps 608 mmHg 87%
    17:00 +19°C° 1.4 mm 1 mps 608 mmHg 90%
    18:00 +16°C° 1.4 mm 0 mps 608 mmHg 94%
    19:00 +15°C° 1.4 mm 0 mps 608 mmHg 97%
    20:00 +16°C° 2 mm 1 mps 608 mmHg 98%
    21:00 +15°C° 2 mm 1 mps 609 mmHg 98%
    22:00 +15°C° 2 mm 1 mps 609 mmHg 98%
    23:00 +15°C° 1 mm 1 mps 609 mmHg 98%

    3 June, Wednesday

    Time Temperature Precipitation Wind Pressure Humidity
    00:00 +15°C° 1 mm 1 mps 608 mmHg 98%
    01:00 +14°C° 1 mm 1 mps 608 mmHg 97%
    02:00 +14°C° 0.4 mm 1 mps 608 mmHg 97%
    03:00 +14°C° 0.4 mm 1 mps 608 mmHg 97%
    04:00 +14°C° 0.4 mm 1 mps 607 mmHg 97%
    05:00 +13°C° 0.1 mm 0 mps 608 mmHg 96%
    06:00 +14°C° 0.1 mm 0 mps 608 mmHg 95%
    07:00 +14°C° 0.1 mm 0 mps 609 mmHg 94%
    08:00 +15°C° 0.1 mm 0 mps 609 mmHg 89%
    09:00 +16°C° 0.1 mm 0 mps 610 mmHg 84%
    10:00 +18°C° 0.1 mm 0 mps 611 mmHg 79%
    11:00 +21°C° 0.3 mm 1 mps 610 mmHg 75%
    12:00 +22°C° 0.3 mm 1 mps 610 mmHg 72%
    13:00 +23°C° 0.3 mm 1 mps 610 mmHg 68%
    14:00 +22°C° 0.5 mm 1 mps 609 mmHg 74%
    15:00 +21°C° 0.5 mm 1 mps 608 mmHg 79%
    16:00 +21°C° 0.5 mm 1 mps 608 mmHg 84%
    17:00 +17°C° 1 mm 0 mps 608 mmHg 88%
    18:00 +16°C° 1 mm 0 mps 607 mmHg 92%
    19:00 +15°C° 1 mm 0 mps 607 mmHg 96%
    20:00 +16°C° 0.7 mm 1 mps 608 mmHg 96%
    21:00 +16°C° 0.7 mm 1 mps 608 mmHg 96%
    22:00 +15°C° 0.7 mm 1 mps 608 mmHg 96%
    23:00 +14°C° 1.1 mm 0 mps 608 mmHg 96%
    Show more